When you browse on this site, cookies collect data to enhance your experience and personalize the content and advertising you see.
Visit our Privacy Policy to learn more. By continuing to use the site, you agree to this use of cookies and data.
  • In Romania
  • List of Countries
  • For 7 days
  • Water Temperature
  • Satellite Maps
  • Weather Map
  • Weather Widgets
  • user-avatar
    Login

    Hourly Weather Polyaki

    Today, 24 March, Sunday

    Time Temperature Precipitation Wind Pressure Humidity
    00:00 0°C° 0.9 mm 4 mps 745 mmHg 76%
    01:00 +1°C° 0.9 mm 3 mps 744 mmHg 77%
    02:00 +1°C° 0 mm 3 mps 743 mmHg 79%
    03:00 +1°C° 0.2 mm 3 mps 743 mmHg 81%
    04:00 +1°C° 0.2 mm 3 mps 742 mmHg 82%
    05:00 +1°C° 0.2 mm 3 mps 742 mmHg 84%
    06:00 +2°C° 0 mm 3 mps 742 mmHg 85%
    07:00 +1°C° 0 mm 4 mps 742 mmHg 85%
    08:00 +1°C° 0 mm 4 mps 742 mmHg 86%
    09:00 +2°C° 0 mm 5 mps 742 mmHg 80%
    10:00 +3°C° 0 mm 5 mps 741 mmHg 74%
    11:00 +5°C° 0 mm 5 mps 741 mmHg 68%
    12:00 +5°C° 0.2 mm 5 mps 741 mmHg 63%
    13:00 +5°C° 0.2 mm 5 mps 741 mmHg 59%
    14:00 +5°C° 0.2 mm 6 mps 741 mmHg 55%
    15:00 +5°C° 0 mm 5 mps 741 mmHg 56%
    16:00 +5°C° 0 mm 4 mps 741 mmHg 58%
    17:00 +4°C° 0 mm 3 mps 741 mmHg 60%
    18:00 +3°C° 0 mm 3 mps 742 mmHg 63%
    19:00 +2°C° 0 mm 3 mps 742 mmHg 66%
    20:00 +1°C° 0 mm 3 mps 742 mmHg 69%
    21:00 +1°C° 0 mm 2 mps 742 mmHg 72%
    22:00 -1°C° 0 mm 2 mps 742 mmHg 74%
    23:00 -1°C° 0 mm 2 mps 742 mmHg 77%

    Tomorrow, 25 March, Monday

    Time Temperature Precipitation Wind Pressure Humidity
    00:00 -2°C° 0 mm 2 mps 742 mmHg 78%
    01:00 -2°C° 0 mm 2 mps 742 mmHg 79%
    02:00 -2°C° 0 mm 2 mps 742 mmHg 79%
    03:00 -2°C° 0 mm 2 mps 742 mmHg 79%
    04:00 -3°C° 0 mm 2 mps 741 mmHg 78%
    05:00 -3°C° 0 mm 2 mps 741 mmHg 77%
    06:00 -2°C° 0 mm 2 mps 741 mmHg 73%
    07:00 -1°C° 0 mm 3 mps 741 mmHg 69%
    08:00 0°C° 0 mm 3 mps 741 mmHg 65%
    09:00 +2°C° 0 mm 3 mps 740 mmHg 59%
    10:00 +3°C° 0 mm 4 mps 740 mmHg 53%
    11:00 +5°C° 0 mm 4 mps 740 mmHg 47%
    12:00 +5°C° 0 mm 4 mps 740 mmHg 46%
    13:00 +6°C° 0 mm 4 mps 739 mmHg 45%
    14:00 +7°C° 0 mm 3 mps 739 mmHg 44%
    15:00 +5°C° 0 mm 3 mps 739 mmHg 49%
    16:00 +6°C° 0 mm 2 mps 739 mmHg 55%
    17:00 +5°C° 0 mm 2 mps 738 mmHg 60%
    18:00 +3°C° 0 mm 2 mps 738 mmHg 65%
    19:00 +2°C° 0 mm 2 mps 738 mmHg 70%
    20:00 +1°C° 0 mm 2 mps 738 mmHg 75%
    21:00 +1°C° 0 mm 2 mps 738 mmHg 76%
    22:00 +1°C° 0 mm 2 mps 738 mmHg 77%
    23:00 +1°C° 0 mm 2 mps 738 mmHg 78%

    Day after tomorrow, 26 March, Tuesday

    Time Temperature Precipitation Wind Pressure Humidity
    00:00 -1°C° 0 mm 2 mps 738 mmHg 80%
    01:00 -1°C° 0 mm 2 mps 737 mmHg 83%
    02:00 -1°C° 0 mm 2 mps 737 mmHg 85%
    03:00 -1°C° 0.1 mm 2 mps 737 mmHg 88%
    04:00 -1°C° 0.1 mm 2 mps 737 mmHg 90%
    05:00 -1°C° 0.1 mm 2 mps 737 mmHg 92%
    06:00 -1°C° 0.5 mm 3 mps 737 mmHg 90%
    07:00 -2°C° 0.5 mm 4 mps 737 mmHg 88%
    08:00 -2°C° 0.5 mm 4 mps 737 mmHg 85%
    09:00 -2°C° 0.1 mm 4 mps 737 mmHg 79%
    10:00 -1°C° 0.1 mm 4 mps 737 mmHg 73%
    11:00 -1°C° 0.1 mm 4 mps 737 mmHg 67%
    12:00 -1°C° 0.1 mm 4 mps 737 mmHg 63%
    13:00 0°C° 0.1 mm 4 mps 738 mmHg 59%
    14:00 0°C° 0.1 mm 4 mps 738 mmHg 55%
    15:00 +1°C° 0 mm 3 mps 738 mmHg 55%
    16:00 +1°C° 0 mm 2 mps 738 mmHg 55%
    17:00 +1°C° 0 mm 2 mps 738 mmHg 56%
    18:00 +1°C° 0 mm 1 mps 738 mmHg 60%
    19:00 -1°C° 0 mm 1 mps 739 mmHg 65%
    20:00 -2°C° 0 mm 1 mps 739 mmHg 70%
    21:00 -2°C° 0 mm 1 mps 739 mmHg 71%
    22:00 -3°C° 0 mm 1 mps 740 mmHg 71%
    23:00 -3°C° 0 mm 1 mps 740 mmHg 72%

    27 March, Wednesday

    Time Temperature Precipitation Wind Pressure Humidity
    00:00 -4°C° 0 mm 2 mps 741 mmHg 75%
    01:00 -4°C° 0 mm 2 mps 741 mmHg 79%
    02:00 -5°C° 0 mm 3 mps 742 mmHg 82%
    03:00 -5°C° 0 mm 3 mps 742 mmHg 82%
    04:00 -7°C° 0 mm 4 mps 743 mmHg 82%
    05:00 -7°C° 0 mm 4 mps 743 mmHg 83%
    06:00 -5°C° 0.1 mm 4 mps 743 mmHg 79%
    07:00 -5°C° 0.1 mm 5 mps 744 mmHg 76%
    08:00 -5°C° 0.1 mm 5 mps 744 mmHg 73%
    09:00 -4°C° 0.1 mm 5 mps 745 mmHg 69%
    10:00 -2°C° 0.1 mm 5 mps 746 mmHg 64%
    11:00 -2°C° 0.1 mm 5 mps 746 mmHg 60%
    12:00 -1°C° 0 mm 5 mps 747 mmHg 59%
    13:00 -1°C° 0 mm 5 mps 747 mmHg 58%
    14:00 -1°C° 0 mm 5 mps 748 mmHg 58%
    15:00 -1°C° 0 mm 5 mps 748 mmHg 57%
    16:00 -1°C° 0 mm 5 mps 749 mmHg 57%
    17:00 -1°C° 0 mm 4 mps 749 mmHg 57%
    18:00 -1°C° 0 mm 3 mps 750 mmHg 63%
    19:00 -2°C° 0 mm 3 mps 750 mmHg 70%
    20:00 -3°C° 0 mm 2 mps 751 mmHg 76%
    21:00 -4°C° 0 mm 2 mps 751 mmHg 78%
    22:00 -4°C° 0 mm 2 mps 751 mmHg 79%
    23:00 -4°C° 0 mm 2 mps 752 mmHg 80%

    28 March, Thursday

    Time Temperature Precipitation Wind Pressure Humidity
    00:00 -4°C° 0 mm 2 mps 752 mmHg 80%
    01:00 -4°C° 0 mm 2 mps 752 mmHg 80%
    02:00 -4°C° 0 mm 2 mps 752 mmHg 80%
    03:00 -4°C° 0 mm 2 mps 752 mmHg 78%
    04:00 -4°C° 0 mm 2 mps 752 mmHg 77%
    05:00 -4°C° 0 mm 2 mps 752 mmHg 75%
    06:00 -4°C° 0 mm 3 mps 752 mmHg 69%
    07:00 -2°C° 0 mm 3 mps 752 mmHg 64%
    08:00 -1°C° 0 mm 3 mps 752 mmHg 59%
    09:00 0°C° 0 mm 4 mps 752 mmHg 55%
    10:00 +1°C° 0 mm 4 mps 752 mmHg 52%
    11:00 +3°C° 0 mm 4 mps 752 mmHg 48%
    12:00 +3°C° 0 mm 5 mps 752 mmHg 49%
    13:00 +5°C° 0 mm 5 mps 751 mmHg 49%
    14:00 +6°C° 0 mm 5 mps 751 mmHg 49%
    15:00 +5°C° 0 mm 4 mps 750 mmHg 56%
    16:00 +4°C° 0 mm 4 mps 750 mmHg 62%
    17:00 +4°C° 0 mm 3 mps 750 mmHg 68%
    18:00 +3°C° 0 mm 3 mps 749 mmHg 74%
    19:00 +1°C° 0 mm 4 mps 749 mmHg 80%
    20:00 0°C° 0 mm 4 mps 749 mmHg 86%
    21:00 0°C° 0 mm 4 mps 748 mmHg 86%
    22:00 0°C° 0 mm 5 mps 748 mmHg 86%
    23:00 +1°C° 0 mm 5 mps 747 mmHg 86%

    29 March, Friday

    Time Temperature Precipitation Wind Pressure Humidity
    00:00 +1°C° 0 mm 5 mps 747 mmHg 86%
    01:00 +1°C° 0 mm 6 mps 746 mmHg 86%
    02:00 +1°C° 0 mm 6 mps 745 mmHg 86%
    03:00 +1°C° 0.1 mm 6 mps 745 mmHg 85%
    04:00 +1°C° 0.1 mm 6 mps 745 mmHg 83%
    05:00 +1°C° 0.1 mm 6 mps 745 mmHg 82%
    06:00 +1°C° 0 mm 6 mps 746 mmHg 77%
    07:00 -1°C° 0 mm 6 mps 746 mmHg 73%
    08:00 -1°C° 0 mm 6 mps 747 mmHg 68%
    09:00 +1°C° 0 mm 6 mps 747 mmHg 66%
    10:00 +1°C° 0 mm 6 mps 748 mmHg 64%
    11:00 +2°C° 0 mm 6 mps 748 mmHg 62%
    12:00 +3°C° 0 mm 5 mps 749 mmHg 61%
    13:00 +3°C° 0 mm 5 mps 749 mmHg 61%
    14:00 +5°C° 0 mm 5 mps 750 mmHg 60%
    15:00 +5°C° 0 mm 4 mps 750 mmHg 62%
    16:00 +4°C° 0 mm 4 mps 750 mmHg 63%
    17:00 +4°C° 0 mm 3 mps 750 mmHg 65%
    18:00 +3°C° 0 mm 3 mps 751 mmHg 71%
    19:00 +3°C° 0 mm 2 mps 751 mmHg 77%
    20:00 +1°C° 0 mm 2 mps 751 mmHg 83%
    21:00 +1°C° 0 mm 2 mps 751 mmHg 85%
    22:00 +1°C° 0 mm 1 mps 752 mmHg 86%
    23:00 +1°C° 0 mm 1 mps 752 mmHg 88%
    Show more